Time,TemperatureF,DewpointF,PressureIn,WindDirection,WindDirectionDegrees,WindSpeedMPH,WindSpeedGustMPH,Humidity,HourlyPrecipIn,Conditions,Clouds,dailyrainin,SoftwareType,DateUTC
2013-12-31 00:00:00,19.9,-10.3,28.91,WSW,253,5.0,8.0,25,0.00,CLR,,0.00,WeatherDisplay:10.37,2013-12-31 05:00:00,
2013-12-31 00:05:00,19.9,-10.3,28.91,WSW,248,5.0,8.0,25,0.00,CLR,,0.00,WeatherDisplay:10.37,2013-12-31 05:05:00,
2013-12-31 00:10:00,19.9,-10.3,28.91,WSW,256,5.0,8.0,25,0.00,CLR,,0.00,WeatherDisplay:10.37,2013-12-31 05:10:00,
2013-12-31 00:15:00,19.9,-10.3,28.91,WSW,255,5.0,9.0,25,0.00,CLR,,0.00,WeatherDisplay:10.37,2013-12-31 05:15:00,
2013-12-31 00:20:00,20.1,-10.2,28.91,WSW,253,5.0,9.0,25,0.00,CLR,,0.00,WeatherDisplay:10.37,2013-12-31 05:20:00,
2013-12-31 00:25:00,19.9,-10.3,28.91,WSW,250,6.0,8.0,25,0.00,CLR,,0.00,WeatherDisplay:10.37,2013-12-31 05:25:00,
2013-12-31 00:30:00,19.9,-10.3,28.91,WSW,254,6.0,9.0,25,0.00,CLR,,0.00,WeatherDisplay:10.37,2013-12-31 05:30:00,
2013-12-31 00:40:00,19.8,-10.5,28.91,WSW,245,8.0,12.0,25,0.00,CLR,,0.00,WeatherDisplay:10.37,2013-12-31 05:40:00,
2013-12-31 00:45:00,19.6,-10.6,28.91,WSW,254,6.0,10.0,25,0.00,CLR,,0.00,WeatherDisplay:10.37,2013-12-31 05:45:00,
2013-12-31 00:50:00,19.6,-9.1,28.91,West,266,5.0,6.0,27,0.00,CLR,,0.00,WeatherDisplay:10.37,2013-12-31 05:50:00,
2013-12-31 00:55:00,19.4,-10.8,28.91,West,274,6.0,12.0,25,0.00,CLR,,0.00,WeatherDisplay:10.37,2013-12-31 05:55:00,
2013-12-31 01:00:00,19.1,-11.0,28.91,West,276,7.0,10.0,25,0.00,CLR,,0.00,WeatherDisplay:10.37,2013-12-31 06:00:00,
2013-12-31 01:05:00,19.0,-11.1,28.91,West,266,6.0,9.0,25,0.00,CLR,,0.00,WeatherDisplay:10.37,2013-12-31 06:05:00,
2013-12-31 01:10:00,19.0,-11.1,28.91,WSW,257,6.0,9.0,25,0.00,CLR,,0.00,WeatherDisplay:10.37,2013-12-31 06:10:00,
2013-12-31 01:15:00,18.9,-8.9,28.91,West,264,5.0,8.0,28,0.00,CLR,,0.00,WeatherDisplay:10.37,2013-12-31 06:15:00,
2013-12-31 01:20:00,18.7,-9.1,28.91,West,277,6.0,8.0,28,0.00,CLR,,0.00,WeatherDisplay:10.37,2013-12-31 06:20:00,
2013-12-31 01:25:00,18.5,-11.5,28.91,WNW,286,6.0,9.0,25,0.00,CLR,,0.00,WeatherDisplay:10.37,2013-12-31 06:25:00,
2013-12-31 01:30:00,18.4,-11.6,28.91,West,280,3.0,10.0,25,0.00,CLR,,0.00,WeatherDisplay:10.37,2013-12-31 06:30:00,
2013-12-31 01:35:00,18.3,-11.7,28.91,West,264,6.0,10.0,25,0.00,CLR,,0.00,WeatherDisplay:10.37,2013-12-31 06:35:00,
2013-12-31 01:40:00,18.3,-11.7,28.91,West,269,5.0,9.0,25,0.00,CLR,,0.00,WeatherDisplay:10.37,2013-12-31 06:40:00,
2013-12-31 01:50:00,18.3,-11.7,28.91,West,274,6.0,8.0,25,0.00,CLR,,0.00,WeatherDisplay:10.37,2013-12-31 06:50:00,
2013-12-31 01:55:00,18.3,-11.7,28.91,WNW,286,5.0,8.0,25,0.00,CLR,,0.00,WeatherDisplay:10.37,2013-12-31 06:55:00,
2013-12-31 02:00:00,18.3,-11.7,28.91,WNW,286,7.0,12.0,25,0.00,CLR,,0.00,WeatherDisplay:10.37,2013-12-31 07:00:00,
2013-12-31 02:05:00,18.3,-11.7,28.91,West,279,7.0,11.0,25,0.00,CLR,,0.00,WeatherDisplay:10.37,2013-12-31 07:05:00,
2013-12-31 02:10:00,18.3,-11.7,28.91,West,280,5.0,8.0,25,0.00,CLR,,0.00,WeatherDisplay:10.37,2013-12-31 07:10:00,
2013-12-31 02:15:00,18.3,-11.7,28.91,West,280,5.0,10.0,25,0.00,CLR,,0.00,WeatherDisplay:10.37,2013-12-31 07:15:00,
2013-12-31 02:20:00,18.5,-11.5,28.91,West,275,6.0,9.0,25,0.00,CLR,,0.00,WeatherDisplay:10.37,2013-12-31 07:20:00,
2013-12-31 02:25:00,18.4,-11.6,28.91,West,270,5.0,9.0,25,0.00,CLR,,0.00,WeatherDisplay:10.37,2013-12-31 07:25:00,
2013-12-31 02:30:00,18.5,-11.5,28.91,West,265,6.0,9.0,25,0.00,CLR,,0.00,WeatherDisplay:10.37,2013-12-31 07:30:00,
2013-12-31 02:35:00,18.5,-11.5,28.91,WSW,258,6.0,10.0,25,0.00,CLR,,0.00,WeatherDisplay:10.37,2013-12-31 07:35:00,
2013-12-31 02:40:00,18.5,-11.5,28.91,West,265,5.0,10.0,25,0.00,CLR,,0.00,WeatherDisplay:10.37,2013-12-31 07:40:00,
2013-12-31 02:45:00,18.5,-11.5,28.91,West,259,6.0,9.0,25,0.00,CLR,,0.00,WeatherDisplay:10.37,2013-12-31 07:45:00,
2013-12-31 02:50:00,18.5,-11.5,28.91,WSW,253,6.0,8.0,25,0.00,CLR,,0.00,WeatherDisplay:10.37,2013-12-31 07:50:00,
2013-12-31 02:55:00,18.5,-9.3,28.91,WSW,256,5.0,8.0,28,0.00,CLR,,0.00,WeatherDisplay:10.37,2013-12-31 07:55:00,
2013-12-31 03:05:00,18.5,-9.3,28.88,WSW,257,5.0,6.0,28,0.00,CLR,,0.00,WeatherDisplay:10.37,2013-12-31 08:05:00,
2013-12-31 03:10:00,18.5,-9.3,28.88,West,266,1.0,8.0,28,0.00,CLR,,0.00,WeatherDisplay:10.37,2013-12-31 08:10:00,
2013-12-31 03:20:00,18.5,-9.3,28.91,WSW,250,6.0,8.0,28,0.00,CLR,,0.00,WeatherDisplay:10.37,2013-12-31 08:20:00,
2013-12-31 03:25:00,18.5,-9.3,28.91,WSW,247,6.0,8.0,28,0.00,CLR,,0.00,WeatherDisplay:10.37,2013-12-31 08:25:00,
2013-12-31 03:30:00,18.5,-9.3,28.91,WSW,241,7.0,12.0,28,0.00,CLR,,0.00,WeatherDisplay:10.37,2013-12-31 08:30:00,
2013-12-31 03:35:00,18.4,-9.3,28.91,WSW,253,7.0,13.0,28,0.00,CLR,,0.00,WeatherDisplay:10.37,2013-12-31 08:35:00,
2013-12-31 03:40:00,18.3,-9.4,28.91,WSW,255,7.0,13.0,28,0.00,CLR,,0.00,WeatherDisplay:10.37,2013-12-31 08:40:00,
2013-12-31 03:45:00,18.3,-11.7,28.91,WSW,251,8.0,11.0,25,0.00,CLR,,0.00,WeatherDisplay:10.37,2013-12-31 08:45:00,
2013-12-31 03:50:00,18.3,-9.4,28.91,WSW,256,6.0,10.0,28,0.00,CLR,,0.00,WeatherDisplay:10.37,2013-12-31 08:50:00,
2013-12-31 03:55:00,18.3,-9.4,28.91,West,265,5.0,8.0,28,0.00,CLR,,0.00,WeatherDisplay:10.37,2013-12-31 08:55:00,
2013-12-31 04:05:00,18.3,-10.9,28.91,West,273,8.0,11.0,26,0.00,CLR,,0.00,WeatherDisplay:10.37,2013-12-31 09:05:00,
2013-12-31 04:15:00,18.3,-11.7,28.91,West,278,6.0,10.0,25,0.00,CLR,,0.00,WeatherDisplay:10.37,2013-12-31 09:15:00,
2013-12-31 04:20:00,18.2,-11.8,28.91,West,278,8.0,12.0,25,0.00,CLR,,0.00,WeatherDisplay:10.37,2013-12-31 09:20:00,
2013-12-31 04:30:00,18.3,-11.7,28.91,West,281,5.0,12.0,25,0.00,CLR,,0.00,WeatherDisplay:10.37,2013-12-31 09:30:00,
2013-12-31 04:35:00,18.3,-11.7,28.91,WNW,287,7.0,12.0,25,0.00,CLR,,0.00,WeatherDisplay:10.37,2013-12-31 09:35:00,
2013-12-31 04:40:00,18.2,-11.8,28.91,WNW,293,7.0,11.0,25,0.00,CLR,,0.00,WeatherDisplay:10.37,2013-12-31 09:40:00,
2013-12-31 04:45:00,18.3,-11.7,28.91,WNW,287,7.0,13.0,25,0.00,CLR,,0.00,WeatherDisplay:10.37,2013-12-31 09:45:00,
2013-12-31 04:50:00,18.1,-11.9,28.91,WNW,288,7.0,12.0,25,0.00,CLR,,0.00,WeatherDisplay:10.37,2013-12-31 09:50:00,
2013-12-31 04:55:00,18.1,-11.9,28.91,WNW,289,7.0,11.0,25,0.00,CLR,,0.00,WeatherDisplay:10.37,2013-12-31 09:55:00,
2013-12-31 05:00:00,18.1,-11.9,28.91,West,281,6.0,13.0,25,0.00,CLR,,0.00,WeatherDisplay:10.37,2013-12-31 10:00:00,
2013-12-31 05:05:00,18.1,-11.9,28.91,WNW,290,7.0,13.0,25,0.00,CLR,,0.00,WeatherDisplay:10.37,2013-12-31 10:05:00,
2013-12-31 05:10:00,18.1,-11.9,28.91,WNW,293,8.0,13.0,25,0.00,CLR,,0.00,WeatherDisplay:10.37,2013-12-31 10:10:00,
2013-12-31 05:15:00,18.0,-12.0,28.91,WNW,297,8.0,11.0,25,0.00,CLR,,0.00,WeatherDisplay:10.37,2013-12-31 10:15:00,
2013-12-31 05:20:00,17.9,-12.1,28.91,NW,304,7.0,17.0,25,0.00,CLR,,0.00,WeatherDisplay:10.37,2013-12-31 10:20:00,
2013-12-31 05:25:00,17.8,-12.2,28.91,NW,304,8.0,17.0,25,0.00,CLR,,0.00,WeatherDisplay:10.37,2013-12-31 10:25:00,
2013-12-31 05:30:00,17.8,-12.2,28.91,WNW,303,8.0,11.0,25,0.00,CLR,,0.00,WeatherDisplay:10.37,2013-12-31 10:30:00,
2013-12-31 05:35:00,17.6,-11.5,28.91,NW,306,8.0,12.0,26,0.00,CLR,,0.00,WeatherDisplay:10.37,2013-12-31 10:35:00,
2013-12-31 05:40:00,17.6,-11.5,28.91,NW,306,10.0,17.0,26,0.00,CLR,,0.00,WeatherDisplay:10.37,2013-12-31 10:40:00,
2013-12-31 05:45:00,17.5,-11.6,28.91,NW,306,8.0,15.0,26,0.00,CLR,,0.00,WeatherDisplay:10.37,2013-12-31 10:45:00,
2013-12-31 05:50:00,17.4,-11.7,28.91,NW,305,7.0,12.0,26,0.00,CLR,,0.00,WeatherDisplay:10.37,2013-12-31 10:50:00,
2013-12-31 05:55:00,17.4,-11.7,28.91,NW,305,7.0,9.0,26,0.00,CLR,,0.00,WeatherDisplay:10.37,2013-12-31 10:55:00,
2013-12-31 06:05:00,17.1,-12.0,28.91,NW,307,7.0,11.0,26,0.00,CLR,,0.00,WeatherDisplay:10.37,2013-12-31 11:05:00,
2013-12-31 06:10:00,16.9,-12.2,28.91,WNW,303,7.0,11.0,26,0.00,CLR,,0.00,WeatherDisplay:10.37,2013-12-31 11:10:00,
2013-12-31 06:15:00,16.7,-12.3,28.91,NW,310,8.0,13.0,26,0.00,CLR,,0.00,WeatherDisplay:10.37,2013-12-31 11:15:00,
2013-12-31 06:20:00,16.7,-12.3,28.91,NW,308,7.0,9.0,26,0.00,CLR,,0.00,WeatherDisplay:10.37,2013-12-31 11:20:00,
2013-12-31 06:25:00,16.6,-12.4,28.91,NW,304,7.0,13.0,26,0.00,CLR,,0.00,WeatherDisplay:10.37,2013-12-31 11:25:00,
2013-12-31 06:30:00,16.5,-12.5,28.94,WNW,301,7.0,13.0,26,0.00,CLR,,0.00,WeatherDisplay:10.37,2013-12-31 11:30:00,
2013-12-31 06:35:00,16.5,-12.5,28.94,WNW,298,8.0,10.0,26,0.00,CLR,,0.00,WeatherDisplay:10.37,2013-12-31 11:35:00,
2013-12-31 06:40:00,16.2,-12.8,28.94,WNW,301,8.0,11.0,26,0.00,CLR,,0.00,WeatherDisplay:10.37,2013-12-31 11:40:00,
2013-12-31 06:45:00,16.2,-12.8,28.94,NW,308,7.0,11.0,26,0.00,CLR,,0.00,WeatherDisplay:10.37,2013-12-31 11:45:00,
2013-12-31 06:50:00,16.2,-12.8,28.94,NW,309,8.0,13.0,26,0.00,CLR,,0.00,WeatherDisplay:10.37,2013-12-31 11:50:00,
2013-12-31 06:55:00,16.0,-12.9,28.94,NW,305,7.0,13.0,26,0.00,CLR,,0.00,WeatherDisplay:10.37,2013-12-31 11:55:00,
2013-12-31 07:05:00,15.8,-13.1,28.94,NW,304,7.0,13.0,26,0.00,CLR,,0.00,WeatherDisplay:10.37,2013-12-31 12:05:00,
2013-12-31 07:10:00,15.8,-13.1,28.94,WNW,297,5.0,13.0,26,0.00,CLR,,0.00,WeatherDisplay:10.37,2013-12-31 12:10:00,
2013-12-31 07:15:00,15.8,-13.1,28.94,WNW,301,5.0,9.0,26,0.00,CLR,,0.00,WeatherDisplay:10.37,2013-12-31 12:15:00,
2013-12-31 07:20:00,15.8,-13.1,28.94,WNW,303,6.0,11.0,26,0.00,CLR,,0.00,WeatherDisplay:10.37,2013-12-31 12:20:00,
2013-12-31 07:30:00,15.8,-13.1,28.94,WNW,303,6.0,8.0,26,0.00,CLR,,0.00,WeatherDisplay:10.37,2013-12-31 12:30:00,
2013-12-31 07:40:00,15.8,-13.1,28.94,NW,304,5.0,8.0,26,0.00,CLR,,0.00,WeatherDisplay:10.37,2013-12-31 12:40:00,
2013-12-31 07:50:00,15.4,-13.4,28.97,NW,306,5.0,8.0,26,0.00,CLR,,0.00,WeatherDisplay:10.37,2013-12-31 12:50:00,
2013-12-31 07:55:00,15.4,-13.4,28.97,NW,308,7.0,10.0,26,0.00,CLR,,0.00,WeatherDisplay:10.37,2013-12-31 12:55:00,
2013-12-31 08:05:00,15.3,-13.6,28.97,NW,306,6.0,9.0,26,0.00,CLR,,0.00,WeatherDisplay:10.37,2013-12-31 13:05:00,
2013-12-31 08:10:00,14.9,-13.9,28.97,NW,314,7.0,9.0,26,0.00,CLR,,0.00,WeatherDisplay:10.37,2013-12-31 13:10:00,
2013-12-31 08:15:00,14.6,-14.1,29.00,NW,308,6.0,8.0,26,0.00,CLR,,0.00,WeatherDisplay:10.37,2013-12-31 13:15:00,
2013-12-31 08:20:00,14.8,-14.0,29.00,WNW,297,7.0,9.0,26,0.00,CLR,,0.00,WeatherDisplay:10.37,2013-12-31 13:20:00,
2013-12-31 08:25:00,14.7,-14.0,29.00,WNW,294,7.0,10.0,26,0.00,CLR,,0.00,WeatherDisplay:10.37,2013-12-31 13:25:00,
2013-12-31 08:30:00,14.5,-14.2,29.00,WNW,287,7.0,10.0,26,0.00,CLR,,0.00,WeatherDisplay:10.37,2013-12-31 13:30:00,
2013-12-31 08:35:00,14.5,-14.2,29.00,WNW,287,6.0,9.0,26,0.00,CLR,,0.00,WeatherDisplay:10.37,2013-12-31 13:35:00,
2013-12-31 08:40:00,14.4,-14.3,29.00,WNW,296,6.0,10.0,26,0.00,CLR,,0.00,WeatherDisplay:10.37,2013-12-31 13:40:00,
2013-12-31 08:45:00,14.4,-14.3,29.00,WNW,298,6.0,8.0,26,0.00,CLR,,0.00,WeatherDisplay:10.37,2013-12-31 13:45:00,
2013-12-31 08:50:00,14.2,-14.5,29.00,WNW,300,6.0,11.0,26,0.00,CLR,,0.00,WeatherDisplay:10.37,2013-12-31 13:50:00,
2013-12-31 08:55:00,14.4,-14.3,29.00,WNW,301,5.0,8.0,26,0.00,CLR,,0.00,WeatherDisplay:10.37,2013-12-31 13:55:00,
2013-12-31 09:00:00,14.5,-14.2,29.00,WNW,295,7.0,9.0,26,0.00,CLR,,0.00,WeatherDisplay:10.37,2013-12-31 14:00:00,
2013-12-31 09:05:00,14.8,-14.0,29.00,WNW,297,7.0,12.0,26,0.00,CLR,,0.00,WeatherDisplay:10.37,2013-12-31 14:05:00,
2013-12-31 09:10:00,14.9,-13.9,29.00,WNW,297,5.0,10.0,26,0.00,CLR,,0.00,WeatherDisplay:10.37,2013-12-31 14:10:00,
2013-12-31 09:15:00,15.1,-13.7,29.03,WNW,288,7.0,12.0,26,0.00,CLR,,0.00,WeatherDisplay:10.37,2013-12-31 14:15:00,
2013-12-31 09:20:00,15.1,-13.7,29.03,WNW,285,7.0,10.0,26,0.00,CLR,,0.00,WeatherDisplay:10.37,2013-12-31 14:20:00,
2013-12-31 09:25:00,15.3,-13.6,29.03,WNW,286,6.0,10.0,26,0.00,CLR,,0.00,WeatherDisplay:10.37,2013-12-31 14:25:00,
2013-12-31 09:30:00,15.2,-13.6,29.06,WNW,285,8.0,12.0,26,0.00,CLR,,0.00,WeatherDisplay:10.37,2013-12-31 14:30:00,
2013-12-31 09:40:00,15.3,-13.6,29.06,WNW,289,6.0,12.0,26,0.00,CLR,,0.00,WeatherDisplay:10.37,2013-12-31 14:40:00,
2013-12-31 09:50:00,15.4,-13.4,29.06,West,279,5.0,12.0,26,0.00,CLR,,0.00,WeatherDisplay:10.37,2013-12-31 14:50:00,
2013-12-31 09:55:00,15.4,-13.4,29.06,WNW,282,5.0,12.0,26,0.00,CLR,,0.00,WeatherDisplay:10.37,2013-12-31 14:55:00,
2013-12-31 10:00:00,15.4,-13.4,29.06,West,276,7.0,12.0,26,0.00,CLR,,0.00,WeatherDisplay:10.37,2013-12-31 15:00:00,
2013-12-31 10:05:00,15.5,-13.4,29.06,West,275,6.0,12.0,26,0.00,CLR,,0.00,WeatherDisplay:10.37,2013-12-31 15:05:00,
2013-12-31 10:10:00,15.3,-13.5,29.06,West,280,8.0,12.0,26,0.00,CLR,,0.00,WeatherDisplay:10.37,2013-12-31 15:10:00,
2013-12-31 10:15:00,15.3,-13.6,29.09,WNW,283,7.0,10.0,26,0.00,CLR,,0.00,WeatherDisplay:10.37,2013-12-31 15:15:00,
2013-12-31 10:20:00,15.1,-13.7,29.09,WNW,287,6.0,11.0,26,0.00,CLR,,0.00,WeatherDisplay:10.37,2013-12-31 15:20:00,
2013-12-31 10:25:00,15.5,-13.4,29.09,WNW,288,5.0,8.0,26,0.00,CLR,,0.00,WeatherDisplay:10.37,2013-12-31 15:25:00,
2013-12-31 10:30:00,16.1,-12.9,29.09,West,277,6.0,8.0,26,0.00,CLR,,0.00,WeatherDisplay:10.37,2013-12-31 15:30:00,
2013-12-31 10:40:00,17.2,-11.8,29.09,WNW,282,7.0,11.0,26,0.00,CLR,,0.00,WeatherDisplay:10.37,2013-12-31 15:40:00,
2013-12-31 10:45:00,17.5,-11.6,29.09,WNW,293,8.0,13.0,26,0.00,CLR,,0.00,WeatherDisplay:10.37,2013-12-31 15:45:00,
2013-12-31 10:50:00,17.1,-11.9,29.09,WNW,288,7.0,9.0,26,0.00,CLR,,0.00,WeatherDisplay:10.37,2013-12-31 15:50:00,
2013-12-31 10:55:00,17.1,-12.0,29.09,WNW,282,8.0,12.0,26,0.00,CLR,,0.00,WeatherDisplay:10.37,2013-12-31 15:55:00,
2013-12-31 11:00:00,18.0,-12.0,29.09,WNW,289,7.0,12.0,25,0.00,CLR,,0.00,WeatherDisplay:10.37,2013-12-31 16:00:00,
2013-12-31 11:05:00,18.7,-11.4,29.09,WNW,283,7.0,10.0,25,0.00,CLR,,0.00,WeatherDisplay:10.37,2013-12-31 16:05:00,
2013-12-31 11:10:00,18.9,-11.2,29.09,WNW,286,7.0,10.0,25,0.00,CLR,,0.00,WeatherDisplay:10.37,2013-12-31 16:10:00,
2013-12-31 11:15:00,19.5,-10.7,29.12,WNW,292,7.0,10.0,25,0.00,CLR,,0.00,WeatherDisplay:10.37,2013-12-31 16:15:00,
2013-12-31 11:25:00,19.2,-10.9,29.12,WNW,293,6.0,13.0,25,0.00,CLR,,0.00,WeatherDisplay:10.37,2013-12-31 16:25:00,
2013-12-31 11:35:00,19.0,-11.1,29.09,WNW,292,8.0,11.0,25,0.00,CLR,,0.00,WeatherDisplay:10.37,2013-12-31 16:35:00,
2013-12-31 11:40:00,19.7,-10.5,29.09,WNW,286,7.0,12.0,25,0.00,CLR,,0.00,WeatherDisplay:10.37,2013-12-31 16:40:00,
2013-12-31 11:45:00,19.9,-10.3,29.09,West,269,8.0,13.0,25,0.00,CLR,,0.00,WeatherDisplay:10.37,2013-12-31 16:45:00,
2013-12-31 11:50:00,20.6,-9.7,29.09,West,280,7.0,13.0,25,0.00,CLR,,0.00,WeatherDisplay:10.37,2013-12-31 16:50:00,
2013-12-31 11:55:00,19.1,-11.1,29.09,WNW,291,8.0,10.0,25,0.00,CLR,,0.00,WeatherDisplay:10.37,2013-12-31 16:55:00,
2013-12-31 12:00:00,19.2,-10.9,29.09,WNW,285,8.0,12.0,25,0.00,CLR,,0.00,WeatherDisplay:10.37,2013-12-31 17:00:00,
2013-12-31 12:05:00,19.6,-10.6,29.09,West,278,7.0,11.0,25,0.00,CLR,,0.00,WeatherDisplay:10.37,2013-12-31 17:05:00,
2013-12-31 12:10:00,20.4,-9.9,29.09,West,278,7.0,11.0,25,0.00,CLR,,0.00,WeatherDisplay:10.37,2013-12-31 17:10:00,
2013-12-31 12:20:00,20.2,-10.1,29.09,West,270,7.0,9.0,25,0.00,CLR,,0.00,WeatherDisplay:10.37,2013-12-31 17:20:00,
2013-12-31 12:25:00,20.6,-9.7,29.09,West,279,7.0,12.0,25,0.00,CLR,,0.00,WeatherDisplay:10.37,2013-12-31 17:25:00,
2013-12-31 12:30:00,20.7,-9.7,29.09,WNW,294,8.0,13.0,25,0.00,CLR,,0.00,WeatherDisplay:10.37,2013-12-31 17:30:00,
2013-12-31 12:35:00,21.0,-9.4,29.09,WNW,289,7.0,10.0,25,0.00,CLR,,0.00,WeatherDisplay:10.37,2013-12-31 17:35:00,
2013-12-31 12:40:00,21.2,-9.2,29.09,West,276,6.0,13.0,25,0.00,CLR,,0.00,WeatherDisplay:10.37,2013-12-31 17:40:00,
2013-12-31 12:45:00,21.2,-9.2,29.09,WNW,297,6.0,15.0,25,0.00,CLR,,0.00,WeatherDisplay:10.37,2013-12-31 17:45:00,
2013-12-31 12:50:00,21.6,-8.9,29.09,NW,305,8.0,13.0,25,0.00,CLR,,0.00,WeatherDisplay:10.37,2013-12-31 17:50:00,
2013-12-31 13:00:00,20.8,-9.5,29.09,WNW,287,7.0,11.0,25,0.00,CLR,,0.00,WeatherDisplay:10.37,2013-12-31 18:00:00,
2013-12-31 13:10:00,21.7,-8.8,29.08,WNW,297,7.0,11.0,25,0.00,CLR,,0.00,WeatherDisplay:10.37,2013-12-31 18:10:00,
2013-12-31 13:15:00,22.2,-8.3,29.06,WNW,287,7.0,13.0,25,0.00,CLR,,0.00,WeatherDisplay:10.37,2013-12-31 18:15:00,
2013-12-31 13:20:00,21.5,-9.0,29.06,WNW,288,5.0,8.0,25,0.00,CLR,,0.00,WeatherDisplay:10.37,2013-12-31 18:20:00,
2013-12-31 13:25:00,21.5,-9.0,29.06,WNW,300,7.0,9.0,25,0.00,CLR,,0.00,WeatherDisplay:10.37,2013-12-31 18:25:00,
2013-12-31 13:30:00,21.6,-8.9,29.06,WNW,301,6.0,9.0,25,0.00,CLR,,0.00,WeatherDisplay:10.37,2013-12-31 18:30:00,
2013-12-31 13:35:00,22.1,-8.4,29.06,WNW,297,6.0,9.0,25,0.00,CLR,,0.00,WeatherDisplay:10.37,2013-12-31 18:35:00,
2013-12-31 13:40:00,22.3,-8.3,29.06,WNW,290,5.0,8.0,25,0.00,CLR,,0.00,WeatherDisplay:10.37,2013-12-31 18:40:00,
2013-12-31 13:45:00,23.0,-7.7,29.06,WNW,294,5.0,8.0,25,0.00,CLR,,0.00,WeatherDisplay:10.37,2013-12-31 18:45:00,
2013-12-31 13:50:00,23.0,-7.7,29.06,WNW,289,6.0,8.0,25,0.00,CLR,,0.00,WeatherDisplay:10.37,2013-12-31 18:50:00,
2013-12-31 13:55:00,22.8,-7.8,29.06,WNW,291,7.0,9.0,25,0.00,CLR,,0.00,WeatherDisplay:10.37,2013-12-31 18:55:00,
2013-12-31 14:05:00,23.7,-7.9,29.06,West,270,5.0,7.0,24,0.00,CLR,,0.00,WeatherDisplay:10.37,2013-12-31 19:05:00,
2013-12-31 14:10:00,23.7,-7.9,29.06,WNW,284,6.0,10.0,24,0.00,CLR,,0.00,WeatherDisplay:10.37,2013-12-31 19:10:00,
2013-12-31 14:20:00,23.7,-7.9,29.06,WNW,285,6.0,8.0,24,0.00,CLR,,0.00,WeatherDisplay:10.37,2013-12-31 19:20:00,
2013-12-31 14:25:00,23.5,-8.0,29.06,WNW,294,3.0,8.0,24,0.00,CLR,,0.00,WeatherDisplay:10.37,2013-12-31 19:25:00,
2013-12-31 14:35:00,24.3,-7.4,29.03,West,265,5.0,9.0,24,0.00,CLR,,0.00,WeatherDisplay:10.37,2013-12-31 19:35:00,
2013-12-31 14:45:00,25.0,-6.8,29.03,West,269,6.0,9.0,24,0.00,CLR,,0.00,WeatherDisplay:10.37,2013-12-31 19:45:00,
2013-12-31 14:55:00,25.9,-6.0,29.03,WSW,249,3.0,6.0,24,0.00,CLR,,0.00,WeatherDisplay:10.37,2013-12-31 19:55:00,
2013-12-31 15:00:00,26.0,-5.9,29.06,West,262,5.0,6.0,24,0.00,CLR,,0.00,WeatherDisplay:10.37,2013-12-31 20:00:00,
2013-12-31 15:05:00,26.6,-5.4,29.06,West,268,6.0,9.0,24,0.00,CLR,,0.00,WeatherDisplay:10.37,2013-12-31 20:05:00,
2013-12-31 15:10:00,25.7,-6.2,29.06,WSW,251,6.0,9.0,24,0.00,CLR,,0.00,WeatherDisplay:10.37,2013-12-31 20:10:00,
2013-12-31 15:15:00,25.5,-6.3,29.06,WSW,256,6.0,10.0,24,0.00,CLR,,0.00,WeatherDisplay:10.37,2013-12-31 20:15:00,
2013-12-31 15:20:00,25.8,-6.1,29.06,West,266,6.0,9.0,24,0.00,CLR,,0.00,WeatherDisplay:10.37,2013-12-31 20:20:00,
2013-12-31 15:25:00,25.4,-6.4,29.06,WSW,257,7.0,10.0,24,0.00,CLR,,0.00,WeatherDisplay:10.37,2013-12-31 20:25:00,
2013-12-31 15:30:00,25.3,-6.5,29.06,WSW,248,6.0,9.0,24,0.00,CLR,,0.00,WeatherDisplay:10.37,2013-12-31 20:30:00,
2013-12-31 15:40:00,25.8,-6.1,29.06,WSW,254,5.0,8.0,24,0.00,CLR,,0.00,WeatherDisplay:10.37,2013-12-31 20:40:00,
2013-12-31 15:45:00,26.1,-5.9,29.06,West,264,8.0,12.0,24,0.00,CLR,,0.00,WeatherDisplay:10.37,2013-12-31 20:45:00,
2013-12-31 15:50:00,25.9,-6.0,29.06,WSW,255,5.0,12.0,24,0.00,CLR,,0.00,WeatherDisplay:10.37,2013-12-31 20:50:00,
2013-12-31 15:55:00,26.6,-5.4,29.06,WSW,250,6.0,11.0,24,0.00,CLR,,0.00,WeatherDisplay:10.37,2013-12-31 20:55:00,
2013-12-31 16:00:00,26.1,-5.9,29.06,WSW,252,6.0,10.0,24,0.00,CLR,,0.00,WeatherDisplay:10.37,2013-12-31 21:00:00,
2013-12-31 16:05:00,25.9,-6.0,29.06,West,264,5.0,8.0,24,0.00,CLR,,0.00,WeatherDisplay:10.37,2013-12-31 21:05:00,
2013-12-31 16:10:00,25.7,-6.2,29.06,West,259,5.0,8.0,24,0.00,CLR,,0.00,WeatherDisplay:10.37,2013-12-31 21:10:00,
2013-12-31 16:20:00,25.1,-6.7,29.06,West,273,6.0,8.0,24,0.00,CLR,,0.00,WeatherDisplay:10.37,2013-12-31 21:20:00,
2013-12-31 16:25:00,24.8,-7.0,29.06,West,273,6.0,10.0,24,0.00,CLR,,0.00,WeatherDisplay:10.37,2013-12-31 21:25:00,
2013-12-31 16:30:00,24.8,-7.0,29.06,West,262,5.0,9.0,24,0.00,CLR,,0.00,WeatherDisplay:10.37,2013-12-31 21:30:00,
2013-12-31 16:40:00,24.8,-7.0,29.06,West,280,6.0,10.0,24,0.00,CLR,,0.00,WeatherDisplay:10.37,2013-12-31 21:40:00,
2013-12-31 16:45:00,24.8,-7.0,29.06,West,280,5.0,6.0,24,0.00,CLR,,0.00,WeatherDisplay:10.37,2013-12-31 21:45:00,
2013-12-31 16:55:00,24.6,-7.1,29.06,West,261,2.0,8.0,24,0.00,CLR,,0.00,WeatherDisplay:10.37,2013-12-31 21:55:00,
2013-12-31 17:00:00,24.4,-7.3,29.06,West,259,3.0,6.0,24,0.00,CLR,,0.00,WeatherDisplay:10.37,2013-12-31 22:00:00,
2013-12-31 17:05:00,24.3,-7.4,29.06,West,271,5.0,6.0,24,0.00,CLR,,0.00,WeatherDisplay:10.37,2013-12-31 22:05:00,
2013-12-31 17:10:00,24.1,-7.6,29.06,West,270,1.0,4.0,24,0.00,CLR,,0.00,WeatherDisplay:10.37,2013-12-31 22:10:00,
2013-12-31 17:15:00,23.7,-7.9,29.06,WNW,287,2.0,5.0,24,0.00,CLR,,0.00,WeatherDisplay:10.37,2013-12-31 22:15:00,
2013-12-31 17:20:00,23.5,-8.0,29.06,WNW,295,2.0,5.0,24,0.00,CLR,,0.00,WeatherDisplay:10.37,2013-12-31 22:20:00,
2013-12-31 17:25:00,23.4,-8.2,29.06,WNW,300,0.0,4.0,24,0.00,CLR,,0.00,WeatherDisplay:10.37,2013-12-31 22:25:00,
2013-12-31 17:30:00,23.4,-8.2,29.06,WNW,303,1.0,4.0,24,0.00,CLR,,0.00,WeatherDisplay:10.37,2013-12-31 22:30:00,
2013-12-31 17:40:00,23.4,-8.2,29.06,NW,305,2.0,4.0,24,0.00,CLR,,0.00,WeatherDisplay:10.37,2013-12-31 22:40:00,
2013-12-31 17:45:00,22.9,-7.7,29.06,NW,320,2.0,4.0,25,0.00,CLR,,0.00,WeatherDisplay:10.37,2013-12-31 22:45:00,
2013-12-31 17:55:00,22.3,-8.3,29.06,NNW,333,0.0,4.0,25,0.00,CLR,,0.00,WeatherDisplay:10.37,2013-12-31 22:55:00,
2013-12-31 18:00:00,22.3,-8.3,29.06,NNW,333,0.0,0.0,25,0.00,CLR,,0.00,WeatherDisplay:10.37,2013-12-31 23:00:00,
2013-12-31 18:05:00,22.3,-8.3,29.06,NNW,333,0.0,0.0,25,0.00,CLR,,0.00,WeatherDisplay:10.37,2013-12-31 23:05:00,
2013-12-31 18:10:00,22.3,-8.3,29.06,NNW,333,0.0,0.0,25,0.00,CLR,,0.00,WeatherDisplay:10.37,2013-12-31 23:10:00,
2013-12-31 18:15:00,22.3,-8.3,29.06,NNW,333,0.0,0.0,25,0.00,CLR,,0.00,WeatherDisplay:10.37,2013-12-31 23:15:00,
2013-12-31 18:20:00,22.3,-8.3,29.06,NNW,333,0.0,0.0,25,0.00,CLR,,0.00,WeatherDisplay:10.37,2013-12-31 23:20:00,
2013-12-31 18:30:00,22.3,-8.3,29.03,NNW,333,0.0,0.0,25,0.00,CLR,,0.00,WeatherDisplay:10.37,2013-12-31 23:30:00,
2013-12-31 18:35:00,22.5,-8.1,29.03,NNW,333,0.0,0.0,25,0.00,CLR,,0.00,WeatherDisplay:10.37,2013-12-31 23:35:00,
2013-12-31 18:40:00,22.3,-8.2,29.03,NNW,333,0.0,0.0,25,0.00,CLR,,0.00,WeatherDisplay:10.37,2013-12-31 23:40:00,
2013-12-31 18:50:00,22.5,-8.1,29.06,NNW,333,0.0,0.0,25,0.00,CLR,,0.00,WeatherDisplay:10.37,2013-12-31 23:50:00,
2013-12-31 19:00:00,22.5,-8.1,29.06,NNW,333,0.0,0.0,25,0.00,CLR,,0.00,WeatherDisplay:10.37,2014-01-01 00:00:00,
2013-12-31 19:10:00,22.3,-8.3,29.06,NNW,333,0.0,0.0,25,0.00,CLR,,0.00,WeatherDisplay:10.37,2014-01-01 00:10:00,
2013-12-31 19:15:00,22.3,-8.3,29.03,NNW,333,0.0,0.0,25,0.00,CLR,,0.00,WeatherDisplay:10.37,2014-01-01 00:15:00,
2013-12-31 19:20:00,22.3,-8.3,29.03,NNW,333,0.0,0.0,25,0.00,CLR,,0.00,WeatherDisplay:10.37,2014-01-01 00:20:00,
2013-12-31 19:30:00,22.5,-8.1,29.03,North,10,0.0,0.0,25,0.00,CLR,,0.00,WeatherDisplay:10.37,2014-01-01 00:30:00,
2013-12-31 19:35:00,22.3,-8.3,29.03,NNE,17,0.0,0.0,25,0.00,CLR,,0.00,WeatherDisplay:10.37,2014-01-01 00:35:00,
2013-12-31 19:45:00,22.1,-8.4,29.03,NNE,17,0.0,0.0,25,0.00,CLR,,0.00,WeatherDisplay:10.37,2014-01-01 00:45:00,
2013-12-31 19:50:00,22.1,-8.4,29.03,NNE,17,0.0,0.0,25,0.00,CLR,,0.00,WeatherDisplay:10.37,2014-01-01 00:50:00,
2013-12-31 19:55:00,21.9,-8.6,29.03,NNE,17,0.0,0.0,25,0.00,CLR,,0.00,WeatherDisplay:10.37,2014-01-01 00:55:00,
2013-12-31 20:00:00,21.8,-8.7,29.03,NNE,17,0.0,0.0,25,0.00,CLR,,0.00,WeatherDisplay:10.37,2014-01-01 01:00:00,
2013-12-31 20:05:00,21.7,-8.8,29.03,NNE,21,0.0,3.0,25,0.00,CLR,,0.00,WeatherDisplay:10.37,2014-01-01 01:05:00,
2013-12-31 20:15:00,21.4,-9.1,29.06,NNE,33,0.0,0.0,25,0.00,CLR,,0.00,WeatherDisplay:10.37,2014-01-01 01:15:00,
2013-12-31 20:25:00,21.2,-7.6,29.06,NNE,33,1.0,3.0,27,0.00,CLR,,0.00,WeatherDisplay:10.37,2014-01-01 01:25:00,
2013-12-31 20:30:00,21.3,-7.5,29.03,NNE,33,0.0,3.0,27,0.00,CLR,,0.00,WeatherDisplay:10.37,2014-01-01 01:30:00,
2013-12-31 20:40:00,21.1,-7.7,29.03,NNE,33,0.0,4.0,27,0.00,CLR,,0.00,WeatherDisplay:10.37,2014-01-01 01:40:00,
2013-12-31 20:45:00,21.2,-7.6,29.03,NE,43,3.0,5.0,27,0.00,CLR,,0.00,WeatherDisplay:10.37,2014-01-01 01:45:00,
2013-12-31 20:50:00,21.0,-7.8,29.03,NE,50,1.0,6.0,27,0.00,CLR,,0.00,WeatherDisplay:10.37,2014-01-01 01:50:00,
2013-12-31 21:00:00,20.8,-8.0,29.03,ENE,62,0.0,6.0,27,0.00,CLR,,0.00,WeatherDisplay:10.37,2014-01-01 02:00:00,
2013-12-31 21:05:00,20.5,-8.3,29.03,ENE,61,0.0,0.0,27,0.00,CLR,,0.00,WeatherDisplay:10.37,2014-01-01 02:05:00,
2013-12-31 21:10:00,20.5,-8.3,29.03,ENE,61,0.0,0.0,27,0.00,CLR,,0.00,WeatherDisplay:10.37,2014-01-01 02:10:00,
2013-12-31 21:15:00,20.3,-8.4,29.03,ENE,61,0.0,0.0,27,0.00,CLR,,0.00,WeatherDisplay:10.37,2014-01-01 02:15:00,
2013-12-31 21:20:00,20.1,-8.6,29.03,ENE,61,0.0,0.0,27,0.00,CLR,,0.00,WeatherDisplay:10.37,2014-01-01 02:20:00,
2013-12-31 21:30:00,19.8,-8.9,29.06,ENE,61,0.0,2.0,27,0.00,CLR,,0.00,WeatherDisplay:10.37,2014-01-01 02:30:00,
2013-12-31 21:35:00,19.8,-8.9,29.06,ENE,61,0.0,2.0,27,0.00,CLR,,0.00,WeatherDisplay:10.37,2014-01-01 02:35:00,
2013-12-31 21:40:00,19.8,-8.9,29.06,ENE,61,0.0,4.0,27,0.00,CLR,,0.00,WeatherDisplay:10.37,2014-01-01 02:40:00,
2013-12-31 21:45:00,19.6,-9.1,29.06,ENE,61,0.0,0.0,27,0.00,CLR,,0.00,WeatherDisplay:10.37,2014-01-01 02:45:00,
2013-12-31 21:50:00,19.5,-8.4,29.06,ENE,61,0.0,0.0,28,0.00,CLR,,0.00,WeatherDisplay:10.37,2014-01-01 02:50:00,
2013-12-31 21:55:00,19.3,-8.6,29.06,ENE,61,0.0,0.0,28,0.00,CLR,,0.00,WeatherDisplay:10.37,2014-01-01 02:55:00,
2013-12-31 22:00:00,19.0,-8.8,29.06,ENE,61,0.0,0.0,28,0.00,CLR,,0.00,WeatherDisplay:10.37,2014-01-01 03:00:00,
2013-12-31 22:05:00,18.5,-9.3,29.06,ENE,61,0.0,0.0,28,0.00,CLR,,0.00,WeatherDisplay:10.37,2014-01-01 03:05:00,
2013-12-31 22:10:00,18.1,-9.6,29.06,ENE,61,0.0,0.0,28,0.00,CLR,,0.00,WeatherDisplay:10.37,2014-01-01 03:10:00,
2013-12-31 22:15:00,17.8,-9.9,29.06,ENE,61,0.0,0.0,28,0.00,CLR,,0.00,WeatherDisplay:10.37,2014-01-01 03:15:00,
2013-12-31 22:25:00,17.6,-10.0,29.06,ENE,61,0.0,0.0,28,0.00,CLR,,0.00,WeatherDisplay:10.37,2014-01-01 03:25:00,
2013-12-31 22:35:00,17.4,-10.2,29.06,ENE,61,0.0,0.0,28,0.00,CLR,,0.00,WeatherDisplay:10.37,2014-01-01 03:35:00,
2013-12-31 22:40:00,17.1,-10.5,29.06,ENE,61,0.0,0.0,28,0.00,CLR,,0.00,WeatherDisplay:10.37,2014-01-01 03:40:00,
2013-12-31 22:45:00,16.9,-10.7,29.06,ENE,61,0.0,0.0,28,0.00,CLR,,0.00,WeatherDisplay:10.37,2014-01-01 03:45:00,
2013-12-31 22:55:00,17.1,-8.4,29.06,ENE,61,0.0,0.0,31,0.00,CLR,,0.00,WeatherDisplay:10.37,2014-01-01 03:55:00,
2013-12-31 23:00:00,17.4,-8.1,29.06,ENE,61,0.0,0.0,31,0.00,CLR,,0.00,WeatherDisplay:10.37,2014-01-01 04:00:00,
2013-12-31 23:05:00,17.9,-8.4,29.06,ENE,61,0.0,3.0,30,0.00,CLR,,0.00,WeatherDisplay:10.37,2014-01-01 04:05:00,
2013-12-31 23:10:00,18.3,-8.0,29.06,ENE,61,0.0,4.0,30,0.00,CLR,,0.00,WeatherDisplay:10.37,2014-01-01 04:10:00,
2013-12-31 23:20:00,18.7,-7.7,29.06,ENE,63,2.0,4.0,30,0.00,CLR,,0.00,WeatherDisplay:10.37,2014-01-01 04:20:00,
2013-12-31 23:25:00,18.7,-9.1,29.06,ENE,65,3.0,6.0,28,0.00,CLR,,0.00,WeatherDisplay:10.37,2014-01-01 04:25:00,
2013-12-31 23:30:00,18.7,-9.1,29.06,ENE,66,3.0,6.0,28,0.00,CLR,,0.00,WeatherDisplay:10.37,2014-01-01 04:30:00,
2013-12-31 23:35:00,18.7,-9.1,29.06,ENE,66,3.0,6.0,28,0.00,CLR,,0.00,WeatherDisplay:10.37,2014-01-01 04:35:00,
2013-12-31 23:40:00,18.9,-8.9,29.06,ENE,65,5.0,6.0,28,0.00,CLR,,0.00,WeatherDisplay:10.37,2014-01-01 04:40:00,
2013-12-31 23:45:00,18.7,-9.1,29.06,ENE,66,5.0,6.0,28,0.00,CLR,,0.00,WeatherDisplay:10.37,2014-01-01 04:45:00,
2013-12-31 23:50:00,19.0,-8.8,29.06,ENE,67,3.0,6.0,28,0.00,CLR,,0.00,WeatherDisplay:10.37,2014-01-01 04:50:00,
2013-12-31 23:55:00,19.0,-8.8,29.06,ENE,67,3.0,5.0,28,0.00,CLR,,0.00,WeatherDisplay:10.37,2014-01-01 04:55:00,